This demonstration page uses our WeatherBlox Daily Observations layout. Learn more.

Left ArrowRight Arrow

Hourly Observations for April 10, 2019

Temp ( °F °C ) Dew Point ( °F °C ) Humidity (%) Winds ( mph kmh ) Pressure ( in mb ) Visibility ( mi km ) Precip ( " mm )
12:53 am 00:53 Clear 64 17.8 25 -3.9 23 23 S 6 9 29.60 1002 10 16 0.00 0.00
1:53 am 01:53 Clear 63 17.2 24 -4.4 23 23 SSW 6 9 29.58 1002 10 16 0.00 0.00
2:53 am 02:53 Clear 60 15.6 25 -3.9 26 26 SE 9 15 29.57 1001 10 16 0.00 0.00
3:53 am 03:53 Clear 58 14.4 26 -3.3 29 29 SE 8 13 29.55 1001 10 16 0.00 0.00
4:53 am 04:53 Clear 57 13.9 27 -2.8 32 32 SE 6 9 29.54 1000 10 16 0.00 0.00
5:53 am 05:53 Clear 55 12.8 29 -1.7 37 37 SE 9 15 29.54 1000 10 16 0.00 0.00
6:53 am 06:53 Clear 52 11.1 30 -1.1 43 43 SE 7 11 29.54 1000 10 16 0.00 0.00
7:53 am 07:53 Sunny 55 12.8 32 0 42 42 SSE 10 17 29.55 1001 10 16 0.00 0.00
8:53 am 08:53 Sunny 63 17.2 33 0.6 33 33 SSE 8 13 29.56 1001 10 16 0.00 0.00
9:53 am 09:53 Sunny 78 25.6 29 -1.7 16 16 S 10 17 29.54 1000 10 16 0.00 0.00
10:53 am 10:53 Sunny 84 28.9 24 -4.4 11 11 SSW 16 26 29.50 999 10 16 0.00 0.00
11:53 am 11:53 Sunny 90 32.2 16 -8.9 6 6 SW 28 44 29.45 997 10 16 0.00 0.00
12:53 pm 12:53 Sunny 92 33.3 14 -10 5 5 WSW 28 44 29.42 996 10 16 0.00 0.00
1:53 pm 13:53 Sunny 93 33.9 11 -11.7 5 5 WSW 30 48 29.39 995 10 16 0.00 0.00
2:53 pm 14:53 Sunny 95 35 12 -11.1 5 5 WSW 24 39 29.36 994 10 16 0.00 0.00
3:53 pm 15:53 Sunny 93 33.9 9 -12.8 4 4 SW 31 50 29.33 993 10 16 0.00 0.00
4:27 pm 16:27 Mostly Cloudy 95 35 8 -13.3 4 4 WSW 24 39 29.20 989 8 13 0.00 0.00
4:53 pm 16:53 Cloudy with Haze 94 34.4 8 -13.3 4 4 W 28 44 29.31 993 6 10 0.00 0.00
5:53 pm 17:53 Cloudy with Haze 89 31.7 12 -11.1 5 5 W 29 46 29.32 993 4 6 0.00 0.00
6:23 pm 18:23 Cloudy with Haze 87 30.6 9 -12.8 5 5 W 30 48 29.24 990 3 4 0.00 0.00
6:43 pm 18:43 Cloudy with Haze 86 30 9 -12.8 5 5 WNW 35 56 29.26 991 3 5 0.00 0.00
6:53 pm 18:53 Cloudy with Haze 85 29.4 9 -12.8 5 5 W 29 46 29.35 994 3 5 0.00 0.00
7:53 pm 19:53 Cloudy with Haze 82 27.8 6 -14.4 5 5 W 30 48 29.37 995 3 5 0.00 0.00
8:53 pm 20:53 Cloudy with Haze 78 25.6 1 -17.2 5 5 WNW 26 43 29.40 996 6 10 0.00 0.00
9:53 pm 21:53 Cloudy 74 23.3 2 -16.7 6 6 WNW 22 35 29.41 996 8 13 0.00 0.00
10:53 pm 22:53 Cloudy 71 21.7 2 -16.7 6 6 WNW 24 39 29.44 997 9 14 0.00 0.00
11:53 pm 23:53 Clear 67 19.4 1 -17.2 7 7 WNW 24 39 29.49 999 10 16 0.00 0.00

Powered by AerisWeather